GW1094 Weather Reports


Display with metric or nautical units.
time (UTC)temp
F
wind
direction
speed
MPH
gust
MPH
rain 1hr
in
rain 24hr
in
rain mn
in
humidity
%
barometer
mb
20260902024031 66 144 0.0 0.0 0.00 0.00 0.00 99 4098.0
20260902023527 66 144 0.0 0.0 0.00 0.00 0.00 99 4098.0
20260902023022 67 144 0.0 0.0 0.00 0.00 0.00 99 4097.7
20260902022516 67 144 0.0 0.0 0.00 0.00 0.00 99 4097.7
20260902022012 67 146 0.0 1.0 0.00 0.00 0.00 99 4097.7
20260902021507 67 143 0.0 0.0 0.00 0.00 0.00 99 4097.7
20260902021002 67 149 0.0 0.0 0.00 0.00 0.00 99 4097.7
20260902020458 67 148 0.0 0.0 0.00 0.00 0.00 99 4097.7
20260902015953 67 153 0.0 0.0 0.00 0.00 0.00 99 4098.0
20260902015449 66 154 0.0 0.0 0.00 0.00 0.00 99 4098.0
20260902014944 67 154 0.0 0.0 0.00 0.00 0.00 99 4098.0
20260902014441 67 154 0.0 0.0 0.00 0.00 0.00 99 4098.3
20260902013940 67 154 0.0 0.0 0.00 0.00 0.00 99 4098.0
20260902013436 67 154 0.0 0.0 0.00 0.00 0.00 99 4098.0
20260902012930 67 153 0.0 1.0 0.00 0.00 0.00 99 4098.0
20260902012426 67 158 0.0 0.0 0.00 0.00 0.00 99 4098.0
20260902011922 67 159 0.0 0.0 0.00 0.00 0.00 99 4098.0
20260902011416 68 159 0.0 0.0 0.00 0.00 0.00 99 4098.0
20260902010910 68 164 0.0 0.0 0.00 0.00 0.00 99 4098.3
20260902010406 68 165 0.0 0.0 0.00 0.00 0.00 99 4098.0
20260902005904 68 159 0.0 0.0 0.00 0.00 0.00 99 4098.0
20260902005359 68 151 0.0 0.0 0.00 0.00 0.00 99 4097.7
20260902004855 68 151 0.0 0.0 0.00 0.00 0.00 99 4098.3
20260902004354 68 153 0.0 0.0 0.00 0.00 0.00 99 4098.0
20260902003849 69 159 0.0 0.0 0.00 0.00 0.00 99 4098.0
20260902003344 69 159 0.0 0.0 0.00 0.00 0.00 99 4097.7
20260902002840 69 159 0.0 1.0 0.00 0.00 0.00 99 4098.0
20260902002339 69 158 0.0 0.0 0.00 0.00 0.00 99 4098.0
20260902001834 69 158 0.0 0.0 0.00 0.00 0.00 99 4097.7
20260902001330 69 158 0.0 0.0 0.00 0.00 0.00 99 4098.0
20260902000825 70 158 0.0 0.0 0.00 0.00 0.00 99 4098.0
20260902000324 70 140 0.0 1.0 0.00 0.00 0.00 99 4098.0
20260901235820 70 147 0.0 1.0 0.00 0.00 0.00 99 4098.0
20260901235319 70 154 0.0 0.0 0.00 0.00 0.00 99 4098.0
20260901234814 71 154 0.0 0.0 0.00 0.00 0.00 99 4098.0
20260901234308 71 146 0.0 0.0 0.00 0.00 0.00 99 4097.7
20260901233804 71 146 0.0 0.0 0.00 0.00 0.00 99 4098.0
20260901233300 71 138 0.0 0.0 0.00 0.00 0.00 99 4097.7
20260901232755 72 137 1.0 1.0 0.00 0.00 0.00 99 4098.0
20260901232250 72 133 0.0 0.0 0.00 0.00 0.00 99 4098.0
20260901231746 73 136 0.0 0.0 0.00 0.00 0.00 99 4097.7
20260901231242 73 136 0.0 0.0 0.00 0.00 0.00 99 4097.7
20260901230738 73 136 0.0 0.0 0.00 0.00 0.00 98 4097.7
20260901230237 74 136 0.0 0.0 0.00 0.00 0.00 97 4097.7
20260901225733 75 136 0.0 0.0 0.00 0.00 0.00 96 4097.7
20260901225227 75 137 0.0 0.0 0.00 0.00 0.00 95 4097.7
20260901224723 76 139 0.0 0.0 0.00 0.00 0.00 95 4098.0
20260901224219 76 140 0.0 0.0 0.00 0.00 0.00 95 4098.0
20260901223715 77 150 1.0 2.0 0.00 0.00 0.00 94 4098.3
20260901223209 76 152 0.0 0.0 0.00 0.00 0.00 95 4098.3
20260901222705 76 152 0.0 1.0 0.00 0.00 0.00 94 4098.3
20260901222201 76 155 1.0 2.0 0.00 0.00 0.00 94 4098.3
20260901221657 75 158 1.0 1.0 0.00 0.00 0.00 96 4098.3
20260901221153 75 159 2.0 2.0 0.00 0.00 0.00 95 4098.0
20260901220652 76 159 1.0 2.0 0.00 0.00 0.00 95 4098.3
20260901220151 75 159 1.0 1.0 0.00 0.00 0.00 96 4098.3
20260901215650 76 159 2.0 2.0 0.00 0.00 0.00 95 4098.3
20260901215145 77 159 2.0 2.0 0.00 0.00 0.00 94 4098.0
20260901214642 76 169 1.0 1.0 0.00 0.00 0.00 94 4098.3
20260901214142 76 170 2.0 2.0 0.00 0.00 0.00 94 4098.3
20260901213637 76 177 1.0 1.0 0.00 0.00 0.00 95 4098.3
20260901213132 76 177 2.0 2.0 0.00 0.00 0.00 95 4098.3
20260901212631 76 177 2.0 2.0 0.00 0.00 0.00 98 4098.3
20260901212127 76 177 2.0 2.0 0.00 0.00 0.00 96 4098.3
20260901211622 75 177 1.0 2.0 0.00 0.00 0.00 98 4098.0
20260901211119 74 177 2.0 2.0 0.00 0.00 0.00 98 4098.0
20260901210614 74 177 2.0 2.0 0.00 0.00 0.00 99 4098.3
20260901210110 73 177 2.0 2.0 0.00 0.00 0.00 99 4098.3
20260901205606 73 177 2.0 2.0 0.00 0.00 0.00 99 4098.7
20260901205105 75 178 3.0 3.0 0.00 0.00 0.00 99 4098.7
20260901204602 74 177 0.0 0.0 0.00 0.00 0.00 99 4098.7
20260901204057 73 177 1.0 1.0 0.00 0.00 0.00 99 4098.7
20260901203556 75 177 3.0 3.0 0.00 0.00 0.00 99 4098.7
20260901203051 75 175 1.0 2.0 0.00 0.00 0.00 99 4098.7
20260901202551 75 175 2.0 2.0 0.00 0.00 0.00 99 4098.7
20260901202048 74 174 2.0 2.0 0.00 0.00 0.00 99 4098.3
20260901201543 73 174 3.0 3.0 0.00 0.00 0.00 99 4098.3
20260901201042 73 174 2.0 2.0 0.00 0.00 0.00 99 4098.7
20260901200541 74 173 2.0 2.0 0.00 0.00 0.00 99 4098.7
20260901200036 76 174 4.0 6.0 0.00 0.00 0.00 99 4099.0
20260901195534 78 221 4.0 5.0 0.00 0.00 0.00 94 4098.7
20260901195034 78 221 3.0 5.0 0.00 0.00 0.00 92 4099.0
20260901194529 79 228 5.0 5.0 0.00 0.00 0.00 92 4099.0
20260901194025 80 225 2.0 2.0 0.00 0.00 0.00 94 4099.0
20260901193525 81 229 3.0 5.0 0.00 0.00 0.00 90 4099.0
20260901193020 82 221 2.0 2.0 0.00 0.00 0.00 88 4099.0
20260901192514 82 222 2.0 2.0 0.00 0.00 0.00 90 4099.0
20260901192010 82 199 0.0 1.0 0.00 0.00 0.00 89 4099.4
20260901191506 81 201 0.0 0.0 0.00 0.00 0.00 89 4099.4
20260901191002 80 208 0.0 1.0 0.00 0.00 0.00 91 4099.7
20260901190457 80 207 1.0 1.0 0.00 0.00 0.00 94 4099.4
20260901185955 79 219 0.0 1.0 0.00 0.00 0.00 93 4099.7
20260901185450 78 225 2.0 2.0 0.00 0.00 0.00 96 4099.4
20260901184949 78 216 3.0 3.0 0.00 0.00 0.00 96 4099.4
20260901184444 79 197 4.0 5.0 0.00 0.00 0.00 94 4099.4
20260901183940 79 177 1.0 1.0 0.00 0.00 0.00 93 4099.4
20260901183439 78 171 1.0 1.0 0.00 0.00 0.00 97 4099.4
20260901182935 77 172 0.0 0.0 0.00 0.00 0.00 97 4099.4
20260901182431 76 170 1.0 1.0 0.00 0.00 0.00 98 4099.7
20260901181925 77 170 2.0 2.0 0.00 0.00 0.00 97 4099.7
20260901181420 77 162 1.0 1.0 0.00 0.00 0.00 97 4100.0
20260901180919 76 161 1.0 1.0 0.00 0.00 0.00 98 4099.7
20260901180419 76 160 1.0 1.0 0.00 0.00 0.00 99 4099.7
20260901175917 75 161 2.0 2.0 0.00 0.00 0.00 99 4100.0
20260901175412 75 161 0.0 1.0 0.00 0.00 0.00 99 4099.7
20260901174907 75 159 1.0 1.0 0.00 0.00 0.00 99 4100.0
20260901174403 75 159 0.0 1.0 0.00 0.00 0.00 99 4100.0
20260901173858 74 159 0.0 0.0 0.00 0.00 0.00 99 4100.0
20260901173353 74 159 0.0 0.0 0.00 0.00 0.00 99 4100.0
20260901172850 74 159 0.0 0.0 0.00 0.00 0.00 99 4100.0
20260901172349 73 159 1.0 1.0 0.00 0.00 0.00 99 4100.4
20260901171847 73 166 0.0 1.0 0.00 0.00 0.00 99 4100.4
20260901171346 73 169 0.0 1.0 0.00 0.00 0.00 99 4100.0
20260901170845 72 161 1.0 2.0 0.00 0.00 0.00 99 4100.0
20260901170340 71 163 0.0 1.0 0.00 0.00 0.00 99 4100.0
20260901165840 70 146 0.0 1.0 0.00 0.00 0.00 99 4100.4
20260901165334 70 146 0.0 1.0 0.00 0.00 0.00 99 4100.0
20260901164831 69 145 0.0 0.0 0.00 0.00 0.00 99 4100.0
20260901164325 69 158 0.0 1.0 0.00 0.00 0.00 99 4100.4
20260901163820 69 151 0.0 0.0 0.00 0.00 0.00 99 4100.4
20260901163315 68 154 0.0 1.0 0.00 0.00 0.00 99 4100.0
20260901162810 68 155 1.0 1.0 0.00 0.00 0.00 99 4100.4
20260901162309 68 156 1.0 1.0 0.00 0.00 0.00 99 4100.4
20260901161808 68 157 0.0 1.0 0.00 0.00 0.00 99 4100.0
20260901161302 68 158 1.0 1.0 0.00 0.00 0.00 99 4100.0
20260901160758 68 152 1.0 1.0 0.00 0.00 0.00 99 4100.0
20260901160254 68 152 1.0 2.0 0.00 0.00 0.00 99 4100.0
20260901155753 67 144 0.0 1.0 0.00 0.00 0.00 99 4100.4
20260901155248 67 155 2.0 3.0 0.00 0.00 0.00 99 4100.4
20260901154744 67 158 1.0 2.0 0.00 0.00 0.00 99 4100.0
20260901154238 67 162 2.0 2.0 0.00 0.00 0.00 99 4100.0
20260901153733 67 155 3.0 3.0 0.00 0.00 0.00 99 4099.7
20260901153233 67 160 3.0 5.0 0.00 0.00 0.00 99 4099.7
20260901152732 67 155 2.0 2.0 0.00 0.00 0.00 99 4100.0
20260901152231 67 158 1.0 1.0 0.00 0.00 0.00 99 4100.0
20260901151726 66 152 1.0 1.0 0.00 0.00 0.00 99 4100.0
20260901151221 66 160 2.0 2.0 0.00 0.00 0.00 99 4100.0
20260901150720 66 158 4.0 5.0 0.00 0.00 0.00 99 4099.7
20260901150218 66 153 3.0 3.0 0.00 0.00 0.00 99 4100.0
20260901145717 66 170 3.0 5.0 0.00 0.00 0.00 99 4100.0
20260901145211 66 160 3.0 3.0 0.00 0.00 0.00 99 4100.0
20260901144707 66 163 3.0 3.0 0.00 0.00 0.00 99 4100.0
20260901144202 66 160 1.0 1.0 0.00 0.00 0.00 99 4100.0
20260901143657 65 164 1.0 1.0 0.00 0.00 0.00 99 4100.0
20260901143154 65 167 1.0 1.0 0.00 0.00 0.00 99 4100.0
20260901142649 65 171 1.0 2.0 0.00 0.00 0.00 99 4100.0
20260901142148 65 169 0.0 0.0 0.00 0.00 0.00 99 4100.4
20260901141643 65 169 0.0 0.0 0.00 0.00 0.00 99 4100.4
20260901141143 65 167 0.0 0.0 0.00 0.00 0.00 99 4100.4
20260901140642 65 161 0.0 0.0 0.00 0.00 0.00 99 4100.0
20260901140141 65 162 0.0 0.0 0.00 0.00 0.00 99 4100.4
20260901135636 65 162 0.0 0.0 0.00 0.00 0.00 99 4100.0
20260901135131 65 161 0.0 0.0 0.00 0.00 0.00 99 4100.0
20260901134627 65 162 0.0 0.0 0.00 0.00 0.00 99 4100.0
20260901134122 65 166 0.0 0.0 0.00 0.00 0.00 99 4100.0
20260901133621 65 171 0.0 0.0 0.00 0.00 0.00 99 4100.0
20260901133119 65 173 1.0 1.0 0.00 0.00 0.00 99 4100.0
20260901132614 65 172 1.0 2.0 0.00 0.00 0.00 99 4100.0
20260901132114 65 168 2.0 2.0 0.00 0.00 0.00 99 4100.0
20260901131614 65 174 2.0 2.0 0.00 0.00 0.00 99 4100.0
20260901131108 65 171 1.0 1.0 0.00 0.00 0.00 99 4100.0
20260901130603 65 172 2.0 2.0 0.00 0.00 0.00 99 4100.0
20260901125600 65 168 1.0 2.0 0.00 0.00 0.00 99 4100.0
20260901125055 64 166 2.0 2.0 0.00 0.00 0.00 99 4100.0
20260901124550 65 169 2.0 2.0 0.00 0.00 0.00 99 4100.0
20260901124045 65 161 1.0 1.0 0.00 0.00 0.00 99 4099.7
20260901123540 65 171 1.0 1.0 0.00 0.00 0.00 99 4099.7
20260901123039 65 157 0.0 0.0 0.00 0.00 0.00 99 4099.7
20260901122538 64 170 2.0 2.0 0.00 0.00 0.00 99 4099.7
20260901122037 64 142 0.0 0.0 0.00 0.00 0.00 99 4099.4
20260901121532 64 139 0.0 0.0 0.00 0.00 0.00 99 4099.4
20260901121028 64 138 0.0 0.0 0.00 0.00 0.00 99 4099.4
20260901120527 64 138 0.0 0.0 0.00 0.00 0.00 99 4099.4
20260901120023 64 138 0.0 0.0 0.00 0.00 0.00 99 4099.4
20260901115518 64 138 0.0 0.0 0.00 0.00 0.00 99 4099.4
20260901115015 64 138 0.0 0.0 0.00 0.00 0.00 99 4099.7
20260901114511 64 138 0.0 0.0 0.00 0.00 0.00 99 4099.7
20260901114009 64 138 0.0 0.0 0.00 0.00 0.00 99 4099.4
20260901113508 64 138 0.0 0.0 0.00 0.00 0.00 99 4099.7
20260901113004 64 138 0.0 0.0 0.00 0.00 0.00 99 4099.4
20260901112458 64 139 0.0 0.0 0.00 0.00 0.00 99 4099.4
20260901111954 64 138 0.0 0.0 0.00 0.00 0.00 99 4099.4
20260901111452 64 138 0.0 0.0 0.00 0.00 0.00 99 4099.4
20260901110950 64 138 0.0 0.0 0.00 0.00 0.00 99 4099.4
20260901110446 63 138 0.0 0.0 0.00 0.00 0.00 99 4099.4
20260901105942 64 138 0.0 0.0 0.00 0.00 0.00 99 4099.4
20260901105438 64 138 0.0 0.0 0.00 0.00 0.00 99 4099.4
20260901104933 64 138 0.0 0.0 0.00 0.00 0.00 99 4099.4
20260901104428 64 138 0.0 0.0 0.00 0.00 0.00 99 4099.0
20260901103924 64 138 0.0 0.0 0.00 0.00 0.00 99 4099.4
20260901103424 64 138 0.0 0.0 0.00 0.00 0.00 99 4099.0
20260901102918 64 138 0.0 0.0 0.00 0.00 0.00 99 4099.4
20260901102419 64 138 0.0 0.0 0.00 0.00 0.00 99 4099.0
20260901101913 64 138 0.0 0.0 0.00 0.00 0.00 99 4099.0
20260901101408 64 138 0.0 0.0 0.00 0.00 0.00 99 4099.0
20260901100902 64 138 0.0 0.0 0.00 0.00 0.00 99 4099.0
20260901100357 64 138 0.0 0.0 0.00 0.00 0.00 99 4099.0
20260901095851 64 138 0.0 0.0 0.00 0.00 0.00 99 4099.0
20260901095348 64 138 0.0 0.0 0.00 0.00 0.00 99 4098.7
20260901094842 64 138 0.0 0.0 0.00 0.00 0.00 99 4099.0
20260901094337 64 138 0.0 0.0 0.00 0.00 0.00 99 4099.0
20260901093832 64 138 0.0 0.0 0.00 0.00 0.00 99 4099.0
20260901093331 64 138 0.0 0.0 0.00 0.00 0.00 99 4098.7
20260901092827 64 138 0.0 0.0 0.00 0.00 0.00 99 4099.0
20260901092323 64 138 0.0 0.0 0.00 0.00 0.00 99 4099.0
20260901091819 64 138 0.0 0.0 0.00 0.00 0.00 99 4098.7
20260901091318 64 138 0.0 0.0 0.00 0.00 0.00 99 4098.7
20260901090814 64 138 0.0 0.0 0.00 0.00 0.00 99 4098.7
20260901090308 64 138 0.0 0.0 0.00 0.00 0.00 99 4098.7
20260901085804 64 139 0.0 0.0 0.00 0.00 0.00 99 4099.0
20260901085259 64 138 0.0 0.0 0.00 0.00 0.00 99 4098.7
20260901084756 64 138 0.0 0.0 0.00 0.00 0.00 99 4098.7
20260901084252 64 138 0.0 0.0 0.00 0.00 0.00 99 4098.7
20260901083752 64 138 0.0 0.0 0.00 0.00 0.00 99 4098.7
20260901083252 64 138 0.0 0.0 0.00 0.00 0.00 99 4099.0
20260901082750 65 138 0.0 0.0 0.00 0.00 0.00 99 4098.7
20260901082245 65 138 0.0 0.0 0.00 0.00 0.00 99 4098.7
20260901081741 65 138 0.0 0.0 0.00 0.00 0.00 99 4098.7
20260901081240 65 138 0.0 0.0 0.00 0.00 0.00 99 4098.3
20260901080736 65 137 0.0 0.0 0.00 0.00 0.00 99 4098.3
20260901080234 65 137 0.0 0.0 0.00 0.00 0.00 99 4098.7
20260901075729 65 161 0.0 0.0 0.00 0.00 0.00 99 4098.7
20260901075224 65 159 0.0 0.0 0.00 0.00 0.00 99 4098.3
20260901074718 65 159 0.0 0.0 0.00 0.00 0.00 99 4098.7
20260901074214 65 159 0.0 0.0 0.00 0.00 0.00 99 4098.3
20260901073710 65 159 0.0 0.0 0.00 0.00 0.00 99 4098.7
20260901073205 65 159 0.0 0.0 0.00 0.00 0.00 99 4098.3
20260901072700 65 159 0.0 0.0 0.00 0.00 0.00 99 4098.3
20260901072155 65 159 0.0 0.0 0.00 0.00 0.00 99 4098.3
20260901071654 65 160 0.0 0.0 0.00 0.00 0.00 99 4098.3
20260901071149 65 160 0.0 0.0 0.00 0.00 0.00 99 4098.3
20260901070643 65 160 0.0 0.0 0.00 0.00 0.00 99 4098.3
20260901070138 64 159 0.0 0.0 0.00 0.00 0.00 99 4098.3
20260901065637 64 159 0.0 0.0 0.00 0.00 0.00 99 4098.0
20260901065132 64 159 0.0 0.0 0.00 0.00 0.00 99 4098.0
20260901064629 64 160 0.0 0.0 0.00 0.00 0.00 99 4098.0
20260901064125 64 160 0.0 0.0 0.00 0.00 0.00 99 4098.0
20260901063622 64 160 0.0 0.0 0.00 0.00 0.00 99 4098.0
20260901063118 64 160 0.0 0.0 0.00 0.00 0.00 99 4098.0
20260901062614 64 160 0.0 0.0 0.00 0.00 0.00 99 4098.0
20260901062110 64 160 0.0 0.0 0.00 0.00 0.00 99 4098.0
20260901061606 64 160 0.0 0.0 0.00 0.00 0.00 99 4098.3
20260901061105 64 160 0.0 0.0 0.00 0.00 0.00 99 4098.0
20260901060600 64 160 0.0 0.0 0.00 0.00 0.00 99 4098.0
20260901060055 64 160 0.0 0.0 0.00 0.00 0.00 99 4097.7
20260901055550 64 160 0.0 0.0 0.00 0.00 0.00 99 4097.7
20260901055047 64 160 0.0 0.0 0.00 0.00 0.00 99 4097.7
20260901054544 64 160 0.0 0.0 0.00 0.00 0.00 99 4097.7
20260901054040 64 160 0.0 0.0 0.00 0.00 0.00 99 4098.0
20260901053536 64 173 0.0 0.0 0.00 0.00 0.00 99 4098.0
20260901053031 64 173 0.0 0.0 0.00 0.00 0.00 99 4098.3
20260901052526 64 173 0.0 0.0 0.00 0.00 0.00 99 4097.7
20260901052026 64 173 0.0 0.0 0.00 0.00 0.00 99 4098.3
20260901051521 64 175 0.0 0.0 0.00 0.00 0.00 99 4098.0
20260901051019 63 179 0.0 0.0 0.00 0.00 0.00 99 4098.3
20260901050515 64 181 0.0 0.0 0.00 0.00 0.00 99 4098.0
20260901050010 64 183 0.0 0.0 0.00 0.00 0.00 99 4098.0
20260901045505 64 201 1.0 2.0 0.00 0.00 0.00 99 4098.0
20260901045000 64 170 0.0 0.0 0.00 0.00 0.00 99 4098.0
20260901044456 63 170 0.0 0.0 0.00 0.00 0.00 99 4098.3
20260901043952 63 170 0.0 0.0 0.00 0.00 0.00 99 4098.3
20260901043447 63 170 0.0 0.0 0.00 0.00 0.00 99 4098.0
20260901042942 63 170 0.0 0.0 0.00 0.00 0.00 99 4098.0
20260901042441 63 170 0.0 0.0 0.00 0.00 0.00 99 4098.0
20260901041937 63 170 0.0 0.0 0.00 0.00 0.00 99 4098.3
20260901041432 63 170 0.0 0.0 0.00 0.00 0.00 99 4098.3
20260901040931 63 170 0.0 0.0 0.00 0.00 0.00 99 4098.3
20260901040426 63 170 0.0 0.0 0.00 0.00 0.00 99 4098.0
20260901035920 63 170 0.0 0.0 0.00 0.02 0.02 99 4098.3
20260901035418 63 170 0.0 0.0 0.00 0.02 0.02 99 4098.3
20260901034917 63 170 0.0 0.0 0.00 0.02 0.02 99 4098.3
20260901034412 64 169 0.0 0.0 0.00 0.02 0.02 99 4098.3
20260901033907 64 169 0.0 0.0 0.00 0.02 0.02 99 4098.3
20260901033406 64 169 0.0 0.0 0.00 0.02 0.02 99 4098.3
20260901032905 64 169 0.0 0.0 0.00 0.02 0.02 99 4098.7
20260901032404 64 169 0.0 0.0 0.00 0.02 0.02 99 4098.3
20260901031900 64 169 0.0 0.0 0.00 0.02 0.02 99 4098.3
20260901031355 64 170 0.0 0.0 0.00 0.02 0.02 99 4098.3
20260901030854 64 170 0.0 0.0 0.00 0.02 0.02 99 4098.0
20260901030351 64 169 0.0 0.0 0.00 0.02 0.02 99 4098.0
20260901025849 64 169 0.0 0.0 0.00 0.02 0.02 99 4097.7
20260901025344 64 168 0.0 0.0 0.00 0.02 0.02 99 4098.0
20260901024839 64 176 0.0 0.0 0.00 0.02 0.02 99 4097.7
20260901024338 64 194 0.0 0.0 0.00 0.02 0.02 99 4097.7